Date,TemperatureHighF,TemperatureAvgF,TemperatureLowF,DewpointHighF,DewpointAvgF,DewpointLowF,HumidityHigh,HumidityAvg,HumidityLow,PressureMaxIn,PressureMinIn,WindSpeedMaxMPH,WindSpeedAvgMPH,GustSpeedMaxMPH,PrecipitationSumIn
2014-1-1,44.8,42.1,39.2,44.3,41.0,38.4,98,96,94,30.44,30.27,2,0,5,0.01
2014-1-2,45.2,42.9,40.4,44.4,41.9,37.7,97,96,90,30.27,29.82,14,2,23,1.35
2014-1-3,43.1,38.6,29.3,38.8,35.3,28.3,96,88,80,30.39,29.94,12,3,21,0.01
2014-1-4,41.2,32.7,27.9,34.8,30.1,26.9,97,91,75,30.51,30.39,5,0,12,0.00
2014-1-5,43.1,32.6,27.8,33.9,29.0,26.2,95,87,63,30.56,30.37,4,0,6,0.00
2014-1-6,41.2,33.4,28.2,33.8,29.9,26.6,94,87,73,30.37,30.13,4,0,6,0.01
2014-1-7,39.9,36.7,32.9,38.7,35.2,30.6,97,94,89,30.16,30.01,4,0,7,0.17
2014-1-8,45.5,40.5,38.0,43.5,39.5,37.2,97,96,87,30.02,29.62,18,2,29,0.57
2014-1-9,46.1,41.6,37.6,43.2,39.3,36.6,97,92,79,29.96,29.69,16,3,27,0.37
2014-1-10,48.6,44.7,40.5,43.1,41.7,39.4,97,89,77,30.03,29.43,16,4,24,0.72
2014-1-11,50.8,44.5,39.5,49.5,41.7,38.7,97,90,79,29.71,29.20,26,8,41,0.57
2014-1-12,49.2,44.2,39.0,46.0,41.3,36.7,96,89,80,30.19,29.72,16,6,24,0.17
2014-1-13,53.0,50.5,49.1,47.8,46.2,44.5,89,85,81,30.57,30.19,15,7,26,0.01
2014-1-14,51.3,48.8,45.5,47.0,45.5,43.5,93,88,84,30.67,30.57,9,1,16,0.00
2014-1-15,51.1,43.3,36.7,46.3,41.3,35.6,96,93,81,30.63,30.53,4,0,6,0.00
2014-1-16,48.7,37.7,30.8,42.6,35.6,29.4,97,92,78,30.54,30.39,4,0,9,0.00
2014-1-17,50.1,36.4,29.8,43.0,34.3,28.5,97,93,74,30.39,30.18,5,0,7,0.00
2014-1-18,39.6,34.7,28.3,38.6,33.6,27.1,97,96,95,30.29,30.18,5,0,10,0.00
2014-1-19,41.2,38.3,36.8,38.4,36.6,35.5,96,94,88,30.36,30.21,4,0,6,0.00
2014-1-20,48.8,37.9,31.0,39.3,34.6,29.5,97,89,67,30.38,30.31,5,0,6,0.00
2014-1-21,45.4,37.3,29.7,37.3,33.1,28.2,95,85,68,30.35,30.24,3,0,5,0.00
2014-1-22,45.8,38.2,31.1,39.1,34.6,29.8,95,87,75,30.48,30.35,2,0,4,0.00
2014-1-23,50.4,36.5,28.2,42.6,33.8,26.9,96,91,67,30.50,30.42,4,0,6,0.00
2014-1-24,55.6,40.6,30.8,42.1,35.7,29.5,96,84,57,30.47,30.32,4,0,5,0.00
2014-1-25,52.9,39.3,31.5,42.5,35.6,30.0,96,87,66,30.40,30.30,2,0,4,0.00
2014-1-26,49.4,36.1,28.7,41.1,33.1,27.4,96,89,71,30.30,30.12,6,0,9,0.00
2014-1-27,50.1,40.0,29.3,36.5,32.3,27.9,95,75,51,30.24,30.13,10,1,20,0.00
2014-1-28,41.5,40.1,38.3,40.4,37.9,33.2,96,92,74,30.25,29.93,2,0,5,0.06
2014-1-29,43.9,41.2,39.6,43.1,40.0,38.4,97,96,91,29.92,29.68,5,0,9,0.28
2014-1-30,40.8,38.2,35.6,39.9,34.8,24.6,97,88,64,29.98,29.79,10,2,18,0.28
2014-1-31,41.7,34.7,26.9,25.5,23.0,20.2,83,62,49,30.19,29.98,9,1,15,0.00
2014-2-1,34.8,31.1,25.8,27.1,24.8,21.3,85,78,71,30.22,30.12,3,0,5,0.00
2014-2-2,39.1,33.6,30.3,27.4,22.3,14.3,86,64,47,30.13,30.01,9,2,17,0.00
2014-2-3,37.2,31.3,27.0,14.8,11.3,5.2,53,43,34,30.31,30.10,13,4,26,0.00
2014-2-4,28.6,26.0,23.6,7.6,5.2,3.5,45,40,38,30.52,30.31,16,5,32,0.00
2014-2-5,30.2,24.8,21.9,5.2,1.9,-0.8,46,37,29,30.57,30.39,16,5,26,0.00
2014-2-6,31.7,25.5,19.4,6.4,1.4,-2.0,43,35,27,30.39,29.83,12,3,21,0.00
2014-2-7,35.1,28.1,23.5,13.5,9.9,6.2,59,46,37,30.00,29.84,9,2,20,0.00
2014-2-8,35.7,30.0,24.1,9.9,8.0,5.7,46,39,31,30.12,29.90,13,5,25,0.00
2014-2-9,34.7,31.2,28.4,20.5,13.6,9.4,62,48,39,30.14,29.98,6,1,13,0.00
2014-2-10,43.4,35.9,30.9,41.6,32.0,19.1,96,87,58,30.10,29.93,14,2,23,0.94
2014-2-11,47.0,41.7,34.8,40.9,38.0,32.6,96,87,74,30.14,29.51,10,2,18,0.62
2014-2-12,51.5,43.5,37.6,46.0,39.7,36.6,97,87,64,29.86,29.36,12,2,23,0.22
2014-2-13,52.8,45.2,39.0,43.1,39.5,34.8,96,81,63,30.05,29.67,14,5,25,0.08
2014-2-14,52.7,44.9,38.7,44.7,39.5,34.8,96,82,69,29.95,29.54,15,4,26,0.28
2014-2-15,47.9,41.0,36.6,45.4,37.9,34.2,95,89,72,29.95,29.19,16,2,36,0.58
2014-2-16,45.7,42.1,38.8,39.3,35.1,32.3,91,76,60,29.90,29.53,24,7,38,0.13
2014-2-17,47.0,41.6,39.0,42.0,38.3,35.4,95,88,78,29.89,29.66,14,4,22,0.35
2014-2-18,46.9,40.9,37.5,44.3,36.9,32.6,95,86,74,29.91,29.47,20,4,31,0.24
2014-2-19,47.9,41.0,36.8,36.1,34.1,30.4,90,77,53,30.09,29.79,12,4,20,0.06
2014-2-20,51.1,43.2,35.4,39.8,36.3,33.4,95,77,57,30.15,29.92,13,5,26,0.09
2014-2-21,45.5,38.4,28.9,36.1,29.8,25.0,86,72,53,30.29,30.15,8,2,13,0.00
2014-2-22,35.9,32.5,28.6,33.5,30.2,24.9,96,91,85,30.25,30.08,2,0,4,0.22
2014-2-23,33.3,30.5,28.3,32.1,28.6,24.3,96,93,82,30.14,30.03,11,3,25,0.03
2014-2-24,34.3,31.0,28.6,29.4,26.4,22.6,91,83,72,30.20,30.13,12,5,25,0.00
2014-2-25,44.8,38.8,33.4,27.9,24.4,19.6,72,56,45,30.22,30.05,12,6,26,0.54
2014-2-26,50.5,42.5,37.8,33.3,28.4,24.0,76,58,48,30.05,29.75,13,3,24,0.14
2014-2-27,50.6,42.1,35.7,41.1,36.3,31.1,93,81,55,29.78,29.67,4,0,7,0.08
2014-2-28,54.4,45.6,40.3,39.1,26.3,12.9,93,52,26,29.78,29.61,15,4,32,0.02
2014-3-1,40.3,33.3,29.1,21.8,16.7,11.1,73,52,32,29.76,29.64,11,5,25,0.01
2014-3-2,32.3,30.1,27.3,31.0,27.3,20.4,95,90,65,29.75,29.57,10,2,18,0.84
2014-3-3,43.2,36.3,32.3,41.8,35.0,30.9,96,95,91,29.89,29.65,10,1,15,1.63
2014-3-4,40.3,37.8,35.7,38.3,36.4,34.4,95,95,92,29.97,29.85,4,0,6,0.79
2014-3-5,45.3,40.7,36.1,43.8,39.4,34.8,96,95,93,29.85,29.41,7,1,13,0.87
2014-3-6,47.5,44.9,41.9,46.7,43.7,40.7,97,96,94,30.02,29.41,10,2,15,1.36
2014-3-7,55.6,49.3,43.0,48.8,45.6,40.4,95,87,73,30.26,30.02,11,2,17,0.04
2014-3-8,45.2,43.7,41.7,43.9,41.9,39.5,96,94,89,30.14,29.71,8,1,14,1.36
2014-3-9,56.3,49.2,43.7,48.3,45.1,40.9,97,86,64,30.02,29.76,6,1,10,0.10
2014-3-10,54.9,45.3,40.6,44.9,40.2,36.3,93,83,58,30.43,29.96,11,1,18,0.00
2014-3-11,59.8,45.1,33.0,44.2,37.4,30.9,95,77,48,30.61,30.44,4,0,9,0.00
2014-3-12,61.7,46.3,34.1,41.7,37.2,31.7,94,73,43,30.48,30.17,5,0,9,0.00
2014-3-13,59.5,48.6,41.7,43.3,41.0,38.6,92,76,52,30.20,29.98,7,0,9,0.00
2014-3-14,58.0,48.8,44.6,47.3,43.4,37.8,95,82,59,30.34,29.85,14,3,22,0.85
2014-3-15,49.5,45.2,42.3,48.4,41.7,37.5,96,88,78,30.35,30.09,9,1,16,1.08
2014-3-16,48.7,44.7,41.0,47.2,42.9,38.9,95,93,90,30.20,29.95,10,3,16,0.58
2014-3-17,51.3,42.7,34.7,38.9,33.7,29.5,92,72,45,30.33,29.96,12,3,21,0.00
2014-3-18,51.1,42.0,33.1,40.9,36.8,29.8,92,82,66,30.35,30.17,5,0,8,0.03
2014-3-19,50.1,44.1,40.1,45.4,39.9,33.4,96,86,61,30.17,29.98,13,2,21,1.02
2014-3-20,53.1,43.2,36.6,37.8,33.5,29.3,88,70,43,30.37,30.16,10,2,17,0.00
2014-3-21,54.2,41.1,31.3,39.2,32.4,28.3,93,73,39,30.38,30.32,8,0,12,0.00
2014-3-22,41.6,37.4,32.6,37.3,33.9,28.9,94,87,76,30.35,30.28,6,1,10,0.19
2014-3-23,54.2,42.9,33.2,41.1,37.1,31.7,96,81,56,30.38,30.30,7,0,10,0.00
2014-3-24,61.0,50.2,39.2,38.7,35.9,33.6,88,60,40,30.29,29.88,12,3,22,0.00
2014-3-25,54.5,48.5,44.4,46.9,42.7,37.5,93,81,60,29.88,29.48,13,3,22,0.36
2014-3-26,59.7,48.7,43.2,47.2,43.4,40.0,93,82,55,29.60,29.53,10,1,17,0.22
2014-3-27,53.2,47.5,41.9,45.3,42.9,39.7,94,84,68,29.87,29.58,5,0,11,0.32
2014-3-28,48.2,45.7,43.1,46.2,43.3,41.2,94,91,85,29.88,29.63,8,1,14,0.59
2014-3-29,50.6,47.1,44.7,45.7,43.4,41.4,94,87,75,29.77,29.67,13,2,22,0.26
2014-3-30,52.0,45.8,41.7,43.5,41.3,39.0,92,85,65,30.02,29.77,10,3,16,0.23
2014-3-31,63.6,49.1,36.5,42.1,37.1,33.0,95,67,36,30.02,29.76,8,2,15,0.00
2014-4-1,65.7,52.8,42.5,41.4,34.7,31.1,73,51,36,29.87,29.78,9,1,16,0.00
2014-4-2,60.4,48.2,37.4,45.3,37.6,32.9,88,68,43,30.00,29.87,7,1,13,0.00
2014-4-3,51.2,45.5,40.4,43.3,39.2,35.8,93,79,64,30.00,29.85,9,0,16,0.13
2014-4-4,58.8,49.6,43.5,44.2,41.7,36.6,93,76,47,29.96,29.87,9,3,18,0.07
2014-4-5,52.9,47.8,44.4,48.4,44.9,41.9,94,90,79,30.05,29.94,10,1,16,0.42
2014-4-6,60.7,51.3,45.4,46.6,44.1,42.6,93,78,53,30.30,30.05,10,1,18,0.04
2014-4-7,70.5,56.3,46.8,54.5,49.3,44.9,95,79,52,30.31,30.07,7,1,9,0.09
2014-4-8,57.6,52.3,47.7,54.1,48.9,40.5,93,88,76,30.14,30.00,10,2,17,0.11
2014-4-9,60.6,49.7,38.6,42.5,38.1,31.3,92,67,35,30.27,30.12,8,2,13,0.00
2014-4-10,62.0,48.9,37.6,44.0,38.8,33.9,91,70,43,30.29,30.17,6,0,10,0.00
2014-4-11,62.9,52.1,45.9,48.9,44.1,39.1,86,75,58,30.17,30.03,12,2,17,0.00
2014-4-12,69.2,54.5,43.4,48.4,42.3,37.2,90,67,36,30.22,30.06,12,1,15,0.00
2014-4-13,72.8,56.1,42.9,40.6,33.5,25.0,77,46,18,30.34,30.20,8,1,15,0.00
2014-4-14,70.0,53.7,40.9,43.1,36.9,31.3,71,55,32,30.20,30.01,10,2,17,0.00
2014-4-15,60.1,51.8,45.8,45.8,41.1,38.1,90,68,47,30.17,30.06,12,3,17,0.06
2014-4-16,52.7,49.4,45.9,50.0,47.2,43.8,94,92,90,30.06,29.90,4,0,7,0.66
2014-4-17,54.7,49.5,44.0,52.6,47.4,42.2,95,92,86,29.90,29.69,15,2,28,1.01
2014-4-18,59.1,49.5,42.7,43.9,40.7,36.0,95,74,43,30.11,29.85,10,3,18,0.06
2014-4-19,54.6,48.0,43.6,46.3,41.0,35.9,90,77,59,30.13,29.78,14,3,24,0.11
2014-4-20,60.1,51.6,44.5,46.1,42.4,39.6,86,72,53,30.31,30.14,10,1,16,0.00
2014-4-21,61.6,51.6,44.3,48.1,43.6,39.7,90,75,54,30.15,29.83,7,1,12,0.02
2014-4-22,59.1,49.7,44.7,45.1,41.5,36.0,94,76,43,29.87,29.80,12,3,19,0.26
2014-4-23,58.0,49.3,42.6,48.1,43.8,40.2,94,82,61,29.90,29.67,6,1,8,0.33
2014-4-24,51.7,46.5,42.4,50.2,44.4,40.8,95,92,88,29.90,29.59,18,1,28,1.42
2014-4-25,61.7,50.3,42.8,47.2,42.2,37.7,94,76,49,29.91,29.82,8,0,12,0.04
2014-4-26,60.6,48.9,38.2,44.3,40.0,35.2,93,73,41,29.83,29.62,9,1,15,0.01
2014-4-27,56.8,48.4,43.8,45.2,41.2,38.5,90,77,55,30.08,29.61,11,4,18,0.20
2014-4-28,66.1,52.1,42.9,44.1,41.0,38.2,90,68,38,30.41,30.09,5,1,10,0.01
2014-4-29,76.7,59.4,46.3,46.9,42.3,38.5,77,56,28,30.54,30.41,8,2,17,0.00
2014-4-30,85.1,65.4,48.5,57.3,48.2,41.3,77,56,27,30.44,30.18,6,1,10,0.00
2014-5-1,89.8,68.7,50.6,55.6,49.8,43.9,81,55,24,30.18,29.93,7,0,10,0.00
2014-5-2,73.7,61.2,50.2,55.2,50.8,45.2,93,70,49,30.01,29.85,10,1,17,0.24
2014-5-3,57.7,52.3,48.5,52.7,49.0,45.9,93,89,73,29.89,29.73,11,1,16,0.40
2014-5-4,51.1,49.0,46.5,48.9,47.3,45.1,95,94,91,29.86,29.73,7,1,12,1.26
2014-5-5,60.2,51.3,46.2,53.5,48.1,44.8,96,89,68,30.01,29.85,4,0,8,0.44
2014-5-6,64.7,55.4,47.9,52.6,48.9,44.0,94,80,60,30.03,29.98,7,1,13,0.00
2014-5-7,70.6,56.7,45.8,52.3,46.3,42.7,92,71,44,30.04,29.86,6,1,12,0.00
2014-5-8,67.7,53.1,45.3,51.8,47.6,42.4,95,83,52,29.87,29.63,10,1,16,0.67
2014-5-9,62.7,52.8,47.3,49.8,45.7,42.3,95,78,52,29.99,29.67,10,4,20,0.19
2014-5-10,57.4,51.4,46.9,50.1,46.9,43.0,91,85,72,30.27,29.99,7,0,9,0.03
2014-5-11,72.9,59.4,50.1,54.8,49.7,46.6,92,72,46,30.35,30.27,6,0,13,0.00
2014-5-12,80.7,63.1,46.8,55.2,47.7,41.5,93,62,31,30.40,30.29,4,0,8,0.00
2014-5-13,82.8,68.2,57.1,54.8,50.5,45.0,80,56,30,30.40,30.31,5,0,8,0.00
2014-5-14,85.7,68.3,52.1,60.3,53.6,47.6,85,62,36,30.34,30.13,4,0,8,0.00
2014-5-15,86.6,69.8,55.6,59.7,54.8,51.2,87,62,34,30.13,29.91,7,1,16,0.00
2014-5-16,69.8,62.3,54.6,54.1,50.8,48.1,80,67,50,30.09,29.98,10,2,20,0.00
2014-5-17,69.9,59.8,54.7,51.8,49.4,46.7,81,69,47,30.06,29.86,7,0,12,0.00
2014-5-18,72.6,60.8,52.2,54.3,49.8,47.3,88,69,45,29.87,29.80,6,1,15,0.00
2014-5-19,68.2,61.0,55.1,54.5,51.2,47.7,82,71,57,30.06,29.87,7,0,10,0.00
2014-5-20,77.4,64.2,55.7,56.2,52.2,48.1,86,67,38,30.12,30.06,9,1,12,0.00
2014-5-21,68.7,60.4,50.4,53.0,49.2,45.4,85,68,48,30.17,30.10,7,1,16,0.00
2014-5-22,78.7,64.7,51.3,59.3,53.8,47.9,90,70,47,30.14,30.00,4,0,8,0.00
2014-5-23,67.0,60.3,54.0,61.0,56.2,49.8,95,87,73,30.10,29.94,7,1,12,1.25
2014-5-24,66.6,57.3,48.1,54.2,49.5,45.6,94,77,55,30.18,30.10,8,1,13,0.00
2014-5-25,56.5,53.4,49.6,53.9,50.4,45.9,94,89,82,30.13,30.00,4,0,7,0.36
2014-5-26,64.8,55.8,51.7,53.7,50.5,46.3,95,83,61,30.18,29.99,10,2,17,0.29
2014-5-27,68.2,56.7,45.5,53.7,47.6,42.7,93,73,47,30.18,30.07,10,1,16,0.00
2014-5-28,62.3,52.3,45.4,54.7,48.7,42.4,94,88,73,30.10,30.04,6,0,9,0.21
2014-5-29,62.9,54.6,49.0,52.2,49.0,45.3,94,82,62,30.23,30.10,9,1,14,0.28
2014-5-30,75.8,59.6,44.3,57.6,49.9,42.1,94,73,48,30.20,29.99,6,0,10,0.00
2014-5-31,77.3,62.2,47.8,58.2,51.2,45.0,93,70,45,30.08,30.01,9,1,13,0.00
2014-6-1,74.3,60.9,49.5,57.9,51.4,46.7,93,73,49,30.10,29.97,5,1,10,0.00
2014-6-2,75.3,60.7,46.6,58.7,50.4,43.7,93,71,45,29.99,29.82,8,1,12,0.00
2014-6-3,67.1,56.9,48.0,53.0,48.9,44.8,90,75,56,30.09,29.86,5,1,12,0.00
2014-6-4,65.8,56.1,47.4,53.0,48.9,44.5,92,77,60,30.13,30.08,8,1,14,0.00
2014-6-5,73.7,58.6,44.0,53.0,45.9,40.5,93,66,36,30.16,30.07,8,1,12,0.00
2014-6-6,75.5,59.3,43.1,53.6,45.9,39.4,90,64,35,30.14,30.06,8,1,13,0.00
2014-6-7,74.5,59.9,46.5,54.4,48.3,43.1,90,68,42,30.18,30.10,10,1,16,0.00
2014-6-8,73.6,61.0,49.5,55.1,50.4,46.1,91,70,46,30.20,30.03,12,2,22,0.00
2014-6-9,69.8,60.3,51.8,50.9,46.4,42.6,84,62,38,30.15,30.06,9,2,17,0.00
2014-6-10,60.7,53.3,49.4,52.3,47.9,42.9,93,82,67,30.12,30.05,8,0,13,0.24
2014-6-11,73.0,59.0,44.3,53.8,48.8,41.8,94,71,44,30.10,29.83,6,0,10,0.00
2014-6-12,71.2,59.2,52.8,55.2,50.9,46.8,93,75,50,29.83,29.78,9,1,16,0.10
2014-6-13,57.1,52.7,49.7,52.3,48.6,45.6,94,86,74,30.07,29.81,11,2,20,0.35
2014-6-14,53.7,51.1,48.0,48.9,46.9,44.7,92,86,79,30.10,29.97,8,2,16,0.05
2014-6-15,63.0,53.6,48.8,52.4,46.3,41.3,91,77,56,29.97,29.80,11,2,17,0.06
2014-6-16,58.7,51.8,46.6,51.3,46.1,40.1,91,81,71,29.96,29.83,8,1,14,0.09
2014-6-17,64.6,56.1,49.2,52.3,48.9,47.0,93,78,61,30.10,29.96,6,1,10,0.01
2014-6-18,60.6,55.0,50.9,50.9,48.0,45.6,84,77,68,30.10,30.02,8,1,13,0.00
2014-6-19,68.8,59.9,49.8,55.8,51.7,47.0,93,76,56,30.02,29.92,4,0,8,0.19
2014-6-20,64.5,54.5,47.3,53.1,45.1,40.5,93,73,45,30.17,29.98,9,2,15,0.12
2014-6-21,72.7,57.6,42.3,50.0,44.0,39.0,91,64,38,30.16,30.04,7,0,11,0.00
2014-6-22,76.3,60.6,44.0,54.8,47.5,40.0,90,64,42,30.12,29.99,8,0,13,0.00
2014-6-23,74.9,62.9,54.2,55.9,50.7,48.1,83,66,44,30.07,29.98,7,1,12,0.00
2014-6-24,71.4,61.3,54.3,57.6,53.5,49.5,90,77,57,30.11,30.03,4,0,8,0.02
2014-6-25,81.4,66.0,51.4,59.4,53.9,48.3,92,68,43,30.04,29.76,6,1,12,0.00
2014-6-26,74.8,63.0,52.9,58.7,52.8,48.6,89,71,50,29.78,29.72,9,2,16,0.00
2014-6-27,65.0,57.5,53.8,57.9,51.7,46.6,93,82,69,29.86,29.72,9,1,14,0.72
2014-6-28,66.0,58.1,52.2,56.6,53.1,50.3,95,84,68,30.01,29.86,10,1,18,0.17
2014-6-29,66.0,56.5,51.0,54.4,50.8,47.8,93,82,60,30.25,30.01,8,1,13,0.04
2014-6-30,79.0,62.4,46.5,60.4,52.5,44.3,94,73,47,30.26,30.03,6,0,10,0.00
2014-7-1,93.2,71.0,52.4,65.1,56.5,49.8,92,65,26,30.04,29.73,7,1,9,0.00
2014-7-2,79.1,67.4,58.8,58.8,55.1,50.5,86,66,44,29.98,29.74,10,1,18,0.00
2014-7-3,69.0,61.4,55.0,53.1,49.7,47.4,80,66,50,30.10,29.97,9,1,17,0.00
2014-7-4,74.8,61.1,52.9,55.8,49.6,46.1,81,67,46,30.06,30.01,9,0,14,0.00
2014-7-5,68.0,61.2,55.3,56.4,52.8,49.8,85,75,60,30.17,30.05,8,1,16,0.01
2014-7-6,69.8,62.7,56.5,61.3,57.2,52.7,88,83,65,30.20,30.11,7,0,12,0.03
2014-7-7,80.5,67.8,55.7,64.6,59.0,53.8,95,75,54,30.18,30.02,8,1,13,0.00
2014-7-8,84.0,68.4,54.6,65.5,57.5,51.7,93,70,45,30.06,29.95,7,1,12,0.00
2014-7-9,77.0,64.8,52.7,58.7,52.6,49.0,89,67,39,30.02,29.92,8,1,15,0.00
2014-7-10,81.6,65.8,49.6,61.6,52.8,45.7,90,65,42,29.97,29.88,8,1,13,0.00
2014-7-11,86.6,69.8,53.2,63.7,56.4,49.6,91,66,40,29.99,29.92,7,1,13,0.00
2014-7-12,86.2,71.0,56.6,64.3,57.7,52.4,89,65,42,30.08,29.99,7,0,12,0.00
2014-7-13,91.2,73.7,61.7,66.9,59.1,54.1,76,62,41,30.11,29.97,6,1,12,0.00
2014-7-14,82.6,71.6,61.4,62.4,57.1,52.3,74,61,45,30.10,30.02,8,1,15,0.00
2014-7-15,85.3,69.4,55.3,63.8,56.2,50.1,85,65,42,30.11,29.97,8,1,12,0.00
2014-7-16,85.0,69.1,54.3,63.9,56.9,50.6,91,67,45,30.01,29.89,9,1,13,0.00
2014-7-17,76.0,64.8,53.9,56.8,53.0,49.2,89,68,40,30.00,29.90,10,1,17,0.00
2014-7-18,75.6,64.0,51.7,56.7,52.6,47.5,88,68,43,30.08,29.98,10,1,17,0.00
2014-7-19,70.1,63.5,59.4,60.6,55.9,50.1,86,77,67,30.01,29.89,15,3,22,0.00
2014-7-20,67.3,59.5,52.1,54.2,50.3,46.3,84,72,51,29.97,29.90,9,1,16,0.01
2014-7-21,74.5,60.9,48.9,54.3,49.5,45.0,89,68,44,30.05,29.96,7,0,12,0.00
2014-7-22,71.4,59.7,48.6,56.7,51.9,45.2,91,76,55,30.08,30.00,4,0,9,0.01
2014-7-23,61.0,57.5,51.5,59.3,54.9,49.8,94,91,83,30.05,29.93,13,1,22,1.12
2014-7-24,61.4,54.4,50.6,54.6,50.6,48.1,95,87,70,30.19,30.02,11,2,18,0.34
2014-7-25,74.5,60.1,47.0,57.4,50.5,44.8,94,73,48,30.19,30.08,6,0,10,0.00
2014-7-26,78.0,62.8,48.3,59.2,52.2,45.5,93,71,45,30.17,30.10,8,0,14,0.00
2014-7-27,82.5,66.0,50.5,62.7,54.9,47.6,93,70,43,30.20,30.07,6,0,14,0.00
2014-7-28,84.9,68.5,52.7,63.9,55.8,49.8,93,67,40,30.13,30.04,5,0,12,0.00
2014-7-29,85.5,68.0,52.7,64.0,56.3,49.5,90,69,41,30.13,30.03,8,0,13,0.01
2014-7-30,84.0,67.3,53.6,61.9,56.6,51.0,92,71,44,30.15,30.06,7,1,12,0.00
2014-7-31,86.7,69.3,52.6,64.9,57.0,48.4,88,68,45,30.14,30.00,8,0,14,0.00
2014-8-1,85.1,68.6,54.3,65.4,58.5,51.7,93,72,47,30.06,29.95,8,0,14,0.00
2014-8-2,87.4,70.2,55.5,67.8,59.2,53.2,93,71,45,30.00,29.91,9,0,15,0.00
2014-8-3,89.1,70.9,55.0,66.0,58.5,52.1,92,68,42,30.07,29.91,4,0,12,0.00
2014-8-4,88.4,70.6,56.2,65.3,59.0,53.6,92,70,43,29.99,29.89,8,0,12,0.00
2014-8-5,78.9,65.4,53.3,60.4,55.7,50.0,89,72,51,30.06,29.92,7,1,14,0.00
2014-8-6,80.2,65.5,54.0,61.4,56.1,51.5,93,74,49,30.12,30.04,8,1,14,0.00
2014-8-7,78.7,64.1,52.1,58.8,53.6,48.0,94,71,45,30.09,30.00,12,1,16,0.00
2014-8-8,77.3,63.4,52.4,57.7,52.3,47.7,88,69,44,30.10,30.02,8,1,13,0.00
2014-8-9,81.2,64.7,49.6,59.5,52.7,46.9,92,68,41,30.16,30.09,8,0,13,0.00
2014-8-10,88.5,69.7,52.5,65.2,57.1,49.6,92,68,39,30.15,29.97,8,0,12,0.00
2014-8-11,96.1,74.0,56.9,68.7,60.0,54.3,92,66,31,30.00,29.79,5,0,8,0.00
2014-8-12,79.7,69.7,64.7,66.9,62.1,57.8,92,77,61,29.88,29.79,9,1,16,0.03
2014-8-13,65.4,62.7,58.4,61.5,60.0,56.6,95,91,80,30.01,29.83,8,0,12,0.44
2014-8-14,70.5,62.1,56.5,63.7,59.2,55.0,96,91,75,30.04,29.96,4,0,8,0.19
2014-8-15,73.1,64.3,59.1,64.6,60.1,56.1,96,87,70,30.07,29.98,8,0,12,0.00
2014-8-16,72.2,63.3,58.6,63.8,59.3,55.8,93,87,74,30.14,30.06,4,0,7,0.00
2014-8-17,79.5,67.3,56.8,66.9,60.7,55.1,95,81,60,30.13,30.04,3,0,6,0.00
2014-8-18,82.9,68.5,58.6,67.6,61.2,55.5,93,78,57,30.05,29.82,6,0,8,0.00
2014-8-19,82.4,68.7,60.8,64.7,59.1,54.3,88,73,46,29.83,29.75,8,1,12,0.00
2014-8-20,74.6,63.8,57.8,58.0,54.4,50.8,82,72,53,29.99,29.79,8,1,12,0.00
2014-8-21,72.7,62.0,53.8,57.9,53.6,50.6,91,75,56,30.03,29.96,8,1,14,0.00
2014-8-22,79.5,64.1,51.6,60.8,54.8,48.4,92,74,48,30.09,29.99,7,0,12,0.00
2014-8-23,83.0,66.8,52.9,61.7,55.1,50.1,92,69,43,30.15,29.98,7,0,12,0.00
2014-8-24,80.9,66.0,53.7,60.7,55.3,50.7,91,70,46,29.98,29.89,6,0,12,0.00
2014-8-25,81.6,66.1,54.2,61.8,55.7,51.1,91,71,48,30.03,29.95,5,0,8,0.00
2014-8-26,86.2,69.3,55.2,63.6,56.9,52.3,91,68,39,30.06,29.96,4,0,10,0.00
2014-8-27,83.0,69.0,57.4,63.2,58.3,54.2,90,70,44,30.03,29.96,8,1,15,0.00
2014-8-28,75.3,64.9,56.9,59.9,56.5,53.0,89,75,56,30.08,29.98,9,1,17,0.00
2014-8-29,68.9,62.0,56.3,57.0,53.4,48.8,87,74,55,29.98,29.93,7,0,12,0.00
2014-8-30,69.8,59.9,54.9,59.1,55.1,52.1,92,84,61,29.94,29.87,9,0,13,0.08
2014-8-31,70.6,60.1,55.1,56.0,52.2,49.0,92,76,48,30.06,29.94,10,2,16,0.02
2014-9-1,70.9,61.3,52.0,56.9,52.4,48.7,90,74,51,30.09,29.97,8,0,10,0.00
2014-9-2,59.7,56.9,52.4,55.2,53.3,50.4,93,87,76,29.97,29.79,11,1,18,0.60
2014-9-3,69.7,56.9,49.8,56.7,51.2,47.6,94,82,59,30.13,29.86,8,0,12,0.00
2014-9-4,75.2,59.5,46.3,58.2,51.4,43.9,94,76,50,30.18,30.08,7,0,12,0.00
2014-9-5,85.0,64.3,49.3,60.5,53.7,46.8,94,72,34,30.19,30.05,5,0,8,0.00
2014-9-6,88.4,68.4,53.0,60.3,54.4,49.4,89,65,32,30.07,29.85,5,0,8,0.00
2014-9-7,82.0,65.6,51.9,58.2,53.7,48.8,93,68,40,29.89,29.77,9,0,12,0.00
2014-9-8,69.8,59.8,52.6,57.0,52.9,49.1,90,78,60,29.94,29.80,9,1,12,0.00
2014-9-9,71.0,60.4,51.7,55.0,52.4,47.1,93,76,48,30.13,29.94,6,0,12,0.00
2014-9-10,70.2,61.0,52.9,52.5,35.5,25.9,88,43,21,30.29,30.13,16,4,31,0.00
2014-9-11,74.5,61.1,48.5,43.9,36.0,27.9,74,41,23,30.36,30.16,9,1,20,0.00
2014-9-12,80.7,58.2,41.3,50.1,42.5,36.9,86,61,25,30.16,29.97,8,0,12,0.00
2014-9-13,83.4,66.3,51.2,51.0,44.1,39.4,80,48,24,30.00,29.86,6,0,13,0.00
2014-9-14,84.8,63.4,46.6,53.0,47.6,42.5,87,61,26,29.94,29.85,6,0,9,0.00
2014-9-15,87.8,65.5,48.3,56.2,49.4,42.6,90,62,22,29.90,29.78,2,0,6,0.00
2014-9-16,75.2,61.2,48.8,53.9,50.1,44.6,87,69,41,29.87,29.83,9,1,14,0.00
2014-9-17,73.1,61.9,56.0,59.1,55.2,51.9,91,79,59,29.86,29.70,8,0,13,0.06
2014-9-18,62.1,58.6,56.7,59.0,56.6,54.8,95,93,88,29.94,29.72,7,1,10,0.32
2014-9-19,65.5,59.0,54.7,61.9,57.0,52.9,96,93,80,30.15,29.94,8,1,14,0.28
2014-9-20,77.3,62.0,52.2,60.7,55.7,51.1,97,82,52,30.15,29.90,8,1,12,0.00
2014-9-21,85.1,65.0,50.7,59.1,53.4,49.0,94,70,31,29.91,29.80,6,0,14,0.00
2014-9-22,68.0,60.7,56.4,59.1,56.1,53.3,92,85,70,29.99,29.90,4,0,7,0.01
2014-9-23,63.9,58.6,53.5,60.0,56.2,51.8,95,92,79,29.91,29.68,4,0,10,0.73
2014-9-24,64.0,58.7,55.5,59.2,56.5,53.8,96,92,82,29.86,29.66,7,1,13,0.86
2014-9-25,64.8,57.7,53.1,58.0,54.3,51.4,95,89,75,29.88,29.83,5,0,8,0.02
2014-9-26,58.2,55.9,54.1,56.7,54.3,52.3,96,94,91,30.12,29.88,3,0,7,0.68
2014-9-27,66.8,56.9,50.5,59.0,54.3,48.5,97,91,75,30.17,30.10,5,0,7,0.00
2014-9-28,70.6,56.9,48.9,59.9,52.8,47.2,97,87,68,30.11,29.89,6,0,12,0.01
2014-9-29,59.1,53.7,47.7,57.8,51.5,46.2,97,93,85,29.93,29.84,10,1,18,0.07
2014-9-30,64.2,56.1,50.2,52.6,49.8,46.8,94,80,58,30.14,29.93,10,1,16,0.00
2014-10-1,63.3,54.3,48.4,53.2,49.2,41.6,94,83,65,30.21,30.14,6,1,12,0.00
2014-10-2,65.7,53.8,43.0,50.1,46.5,41.1,95,78,49,30.33,30.20,5,0,10,0.00
2014-10-3,70.4,56.8,44.9,52.9,48.5,42.7,93,76,43,30.34,30.15,5,0,12,0.00
2014-10-4,66.0,59.9,55.0,59.8,55.9,52.0,93,87,77,30.22,30.15,5,0,9,0.02
2014-10-5,73.8,63.2,56.2,62.5,58.2,53.9,93,85,65,30.17,30.07,4,0,6,0.00
2014-10-6,74.4,61.8,54.4,63.2,57.5,52.4,96,86,67,30.09,29.99,5,0,7,0.00
2014-10-7,72.7,60.9,54.4,63.8,57.3,52.6,96,89,72,29.99,29.91,6,0,9,0.00
2014-10-8,65.7,58.1,52.8,59.7,55.2,51.1,96,91,78,30.05,29.95,2,0,6,0.00
2014-10-9,71.7,58.5,50.6,59.3,54.0,49.2,96,86,61,30.07,30.00,4,0,5,0.00
2014-10-10,62.5,56.0,47.5,56.6,53.1,45.8,97,90,79,30.04,29.97,7,1,12,0.07
2014-10-11,61.7,56.2,52.0,56.9,52.9,49.1,96,89,74,30.15,29.97,12,1,20,0.23
2014-10-12,60.1,55.1,50.6,55.3,51.8,47.9,94,89,79,30.24,30.06,3,0,7,0.03
2014-10-13,60.9,55.6,51.6,55.8,51.5,48.7,96,86,73,30.07,29.60,14,2,25,0.83
2014-10-14,58.5,52.6,49.5,54.7,50.0,48.1,96,91,81,29.85,29.56,4,0,8,0.53
2014-10-15,54.0,51.8,49.6,52.6,49.6,47.9,96,92,86,29.96,29.52,8,1,13,0.39
2014-10-16,62.7,54.3,50.5,54.6,50.5,48.6,95,87,69,30.03,29.85,6,0,15,0.02
2014-10-17,54.2,52.8,51.0,52.4,50.0,46.7,96,90,78,29.85,29.70,7,1,14,0.31
2014-10-18,65.8,59.1,53.4,60.1,56.4,52.3,97,91,78,29.93,29.81,6,1,12,0.02
2014-10-19,73.2,62.8,56.7,59.5,55.6,52.0,94,78,58,29.82,29.62,14,1,22,0.12
2014-10-20,60.1,57.1,52.5,57.9,55.6,50.5,96,95,92,29.77,29.66,8,1,15,0.80
2014-10-21,62.7,57.0,52.8,54.3,51.2,48.7,96,82,66,29.87,29.67,14,4,26,0.14
2014-10-22,60.1,54.5,50.4,54.0,51.3,47.8,95,89,68,29.69,29.50,13,2,23,0.53
2014-10-23,54.6,50.7,47.1,51.5,48.3,45.1,95,92,81,30.01,29.61,8,2,15,0.24
2014-10-24,55.4,50.1,44.7,49.7,46.1,43.4,96,86,75,30.10,29.83,8,1,14,0.01
2014-10-25,52.9,50.2,48.0,50.9,47.2,44.4,96,90,78,29.83,29.26,12,3,21,1.46
2014-10-26,50.5,47.4,41.9,48.5,45.3,40.3,96,93,87,30.13,29.61,8,2,14,0.12
2014-10-27,53.7,48.0,41.9,46.6,44.6,40.3,96,88,73,30.16,29.95,7,1,15,0.02
2014-10-28,54.8,49.0,46.5,53.7,47.4,44.6,97,94,86,29.95,29.80,7,1,12,0.54
2014-10-29,60.0,54.9,49.6,54.8,52.0,47.9,95,90,77,30.14,29.87,10,3,14,0.12
2014-10-30,54.1,52.2,51.0,52.9,49.2,46.3,96,90,80,30.06,29.70,9,3,17,0.57
2014-10-31,51.7,49.7,43.9,50.4,48.6,42.8,97,96,95,29.91,29.70,6,1,10,0.35
2014-11-1,50.9,45.7,42.2,49.2,44.1,41.1,97,94,88,30.03,29.88,5,1,8,0.02
2014-11-2,53.2,47.3,41.0,49.4,45.4,39.6,96,93,85,30.13,30.03,6,1,8,0.10
2014-11-3,53.3,50.6,48.2,52.5,49.7,47.1,97,97,94,30.10,29.93,6,1,8,1.29
2014-11-4,58.4,52.9,46.2,55.1,50.4,44.7,97,92,78,30.27,29.92,10,3,18,0.22
2014-11-5,52.1,48.9,46.2,48.6,46.8,44.8,96,92,84,30.29,29.96,5,1,12,0.07
2014-11-6,62.9,54.1,49.8,55.9,50.1,46.4,97,87,71,30.27,29.70,20,6,29,0.61
2014-11-7,57.7,49.7,40.5,49.5,44.7,38.6,94,83,66,30.52,30.27,7,2,10,0.00
2014-11-8,53.9,45.4,37.9,47.0,42.5,36.6,96,90,75,30.41,30.05,4,0,6,0.02
2014-11-9,47.5,44.5,37.4,46.6,43.4,36.3,97,96,94,30.07,29.82,5,1,8,0.52
2014-11-10,52.7,43.1,35.8,43.6,33.9,21.8,97,73,41,30.28,30.07,10,2,20,0.01
2014-11-11,45.5,40.6,36.4,22.8,17.6,7.6,47,39,28,30.42,30.28,15,6,27,0.00
2014-11-12,43.9,38.0,33.3,16.3,11.7,7.5,37,34,30,30.44,30.16,12,4,23,0.00
2014-11-13,45.1,39.2,34.5,14.7,11.8,9.0,37,32,27,30.16,30.01,10,4,23,0.00
2014-11-14,42.6,37.2,33.0,17.6,14.2,11.9,46,39,34,30.36,30.08,10,4,21,0.00
2014-11-15,43.3,34.6,26.5,21.3,16.6,12.8,74,49,34,30.58,30.36,9,3,20,0.00
2014-11-16,46.0,32.1,23.3,25.5,21.6,18.1,83,67,41,30.58,30.42,4,0,5,0.00
2014-11-17,47.7,33.8,25.3,29.4,24.7,21.1,86,71,44,30.44,30.23,4,0,7,0.00
2014-11-18,48.9,37.8,28.9,33.4,29.5,23.6,83,73,53,30.23,30.09,5,0,6,0.00
2014-11-19,51.7,42.0,35.9,38.4,34.4,31.2,85,75,54,30.10,29.82,4,1,6,0.00
2014-11-20,45.4,43.0,40.5,44.3,40.7,34.4,96,92,73,29.98,29.85,4,0,5,0.41
2014-11-21,47.6,45.5,43.6,46.8,44.3,42.4,97,96,87,29.88,29.28,11,2,22,0.83
2014-11-22,50.1,46.1,43.0,45.3,42.4,40.3,94,87,80,30.09,29.44,10,3,15,0.18
2014-11-23,53.2,46.2,39.7,45.4,41.7,36.6,94,85,67,30.34,29.95,16,4,29,0.31
2014-11-24,44.6,42.3,37.2,42.8,40.7,35.1,96,94,90,30.37,30.07,7,2,9,0.65
2014-11-25,44.4,42.5,39.4,43.6,41.5,38.4,97,96,96,30.25,30.11,7,1,12,1.15
2014-11-26,50.4,42.6,39.2,49.3,41.8,38.2,97,97,96,30.15,29.77,6,1,13,0.50
2014-11-27,56.7,53.9,51.3,53.4,51.4,49.4,98,91,84,29.80,29.54,14,6,24,0.76
2014-11-28,52.9,40.5,25.8,51.1,36.9,19.6,96,87,73,29.59,29.47,15,5,24,0.50
2014-11-29,27.8,22.9,19.5,19.5,7.5,3.1,77,52,36,30.29,29.59,15,5,33,0.00
2014-11-30,32.2,24.4,19.8,17.0,12.6,7.2,75,61,47,30.31,30.15,7,2,14,0.00
2014-12-1,34.6,25.9,19.5,22.2,18.3,14.5,84,73,59,30.28,30.15,4,1,7,0.00
2014-12-2,41.9,29.4,19.2,27.1,22.1,16.4,93,75,52,30.28,30.00,12,2,24,0.01
2014-12-3,46.7,36.9,29.0,25.7,23.2,20.5,80,59,41,30.01,29.80,11,2,22,0.00
2014-12-4,38.5,35.1,30.0,33.2,27.4,23.6,92,74,60,29.98,29.82,10,2,16,0.12
2014-12-5,43.3,38.1,34.8,39.7,35.2,32.5,93,89,84,30.01,29.77,14,4,20,0.02
2014-12-6,44.7,41.7,39.1,43.6,40.0,37.2,96,94,82,30.25,29.76,10,1,16,0.89
2014-12-7,49.9,44.7,38.5,44.8,41.2,37.5,97,88,78,30.28,29.99,10,3,16,0.00
2014-12-8,50.8,46.8,43.0,46.9,44.1,39.8,96,90,79,30.03,29.79,9,2,17,0.84
2014-12-9,62.4,52.6,46.8,55.1,49.7,45.7,97,90,72,29.85,29.61,17,4,34,0.54
2014-12-10,60.9,52.6,47.5,52.4,48.7,46.1,96,87,72,29.70,29.20,19,5,33,1.11
2014-12-11,55.0,46.9,44.9,47.4,44.2,42.3,95,91,67,29.57,29.19,20,3,34,1.02
2014-12-12,54.9,48.8,41.2,45.6,43.5,39.1,93,82,68,30.04,29.36,18,3,31,0.00
2014-12-13,49.4,43.3,37.1,46.0,41.2,35.5,96,92,82,30.26,30.04,5,1,8,0.02
2014-12-14,47.7,41.9,37.4,37.7,33.6,29.6,95,73,60,30.26,30.04,10,4,18,0.00
2014-12-15,46.1,42.7,39.5,32.1,30.4,28.3,67,62,57,30.07,29.86,10,4,16,0.00
2014-12-16,44.2,42.3,40.1,37.4,34.0,31.1,87,73,62,29.89,29.85,7,2,15,0.02
2014-12-17,45.8,42.4,39.4,39.9,37.6,34.7,92,83,73,29.93,29.83,7,1,12,0.06
2014-12-18,44.5,42.4,40.8,43.2,41.0,38.8,96,94,92,29.95,29.69,7,1,13,0.91
2014-12-19,48.3,44.8,41.0,45.5,42.8,39.6,96,93,83,29.93,29.73,7,2,13,1.54
2014-12-20,53.6,44.0,41.3,50.2,42.3,40.0,97,94,86,29.85,29.34,15,4,26,1.18
2014-12-21,53.6,49.7,46.4,49.5,44.8,42.6,88,83,78,30.08,29.43,15,5,25,0.00
2014-12-22,48.4,43.9,40.8,44.1,40.2,37.5,92,87,78,30.40,30.07,8,1,13,0.00
2014-12-23,44.3,41.9,40.7,41.7,40.1,38.6,96,93,86,30.34,30.00,8,2,13,0.87
2014-12-24,47.1,42.7,40.2,42.3,39.3,37.8,94,88,79,30.03,29.87,8,3,13,0.08
2014-12-25,42.0,38.9,34.9,40.1,37.1,32.9,95,93,89,30.31,30.03,5,1,8,0.16
2014-12-26,39.7,37.3,34.4,38.4,36.0,33.1,96,95,93,30.40,30.30,4,0,5,0.02
2014-12-27,43.5,38.9,36.7,42.7,37.7,35.4,97,96,95,30.32,29.98,6,1,12,0.55
2014-12-28,43.0,38.8,36.5,40.4,36.3,24.6,96,91,61,30.26,30.06,12,1,21,0.00
2014-12-29,38.6,34.2,27.1,25.0,16.5,8.9,61,48,40,30.87,30.26,14,6,28,0.01
2014-12-30,34.4,27.2,24.2,17.3,12.0,7.4,73,53,43,30.92,30.78,12,3,25,0.00
2014-12-31,36.2,27.0,20.5,23.4,19.9,16.3,86,75,59,30.78,30.46,5,1,7,0.00
2015-1-1,38.4,28.4,21.5,29.4,24.1,19.0,92,84,68,30.46,30.23,3,0,4,0.00
2015-1-2,35.5,33.4,30.5,33.9,31.2,27.5,95,91,86,30.24,30.08,5,1,7,0.23